• In Portugal
  • List of Countries
  • For 7 days
  • Water Temperature
  • Satellite Maps
  • Weather Map
  • Weather Widgets
  • user-avatar
    Login

    Hourly Weather Klagenfurt

    Today, 20 August, Monday

    Time Temperature Precipitation Wind Pressure Humidity
    00:00 +16°C° 0 mm 1 mps 692 mmHg 78%
    01:00 +16°C° 0 mm 1 mps 692 mmHg 79%
    02:00 +16°C° 0 mm 1 mps 692 mmHg 79%
    03:00 +15°C° 0 mm 1 mps 692 mmHg 80%
    04:00 +15°C° 0 mm 1 mps 692 mmHg 80%
    05:00 +16°C° 0 mm 1 mps 692 mmHg 77%
    06:00 +18°C° 0 mm 1 mps 692 mmHg 74%
    07:00 +19°C° 0 mm 1 mps 693 mmHg 71%
    08:00 +22°C° 0 mm 1 mps 693 mmHg 62%
    09:00 +25°C° 0 mm 1 mps 694 mmHg 53%
    10:00 +28°C° 0 mm 1 mps 694 mmHg 43%
    11:00 +28°C° 0.1 mm 1 mps 694 mmHg 41%
    12:00 +29°C° 0.1 mm 1 mps 694 mmHg 39%
    13:00 +30°C° 0.1 mm 1 mps 694 mmHg 37%
    14:00 +29°C° 0.1 mm 1 mps 694 mmHg 39%
    15:00 +29°C° 0.1 mm 1 mps 693 mmHg 41%
    16:00 +28°C° 0.1 mm 1 mps 693 mmHg 43%
    17:00 +26°C° 0 mm 1 mps 693 mmHg 50%
    18:00 +23°C° 0 mm 1 mps 692 mmHg 58%
    19:00 +21°C° 0 mm 1 mps 692 mmHg 65%
    20:00 +20°C° 0 mm 1 mps 692 mmHg 68%
    21:00 +19°C° 0 mm 1 mps 692 mmHg 70%
    22:00 +19°C° 0 mm 1 mps 692 mmHg 72%
    23:00 +18°C° 0 mm 1 mps 692 mmHg 74%

    Tomorrow, 21 August, Tuesday

    Time Temperature Precipitation Wind Pressure Humidity
    00:00 +18°C° 0 mm 1 mps 692 mmHg 76%
    01:00 +16°C° 0 mm 1 mps 692 mmHg 78%
    02:00 +16°C° 0 mm 1 mps 692 mmHg 79%
    03:00 +16°C° 0 mm 1 mps 692 mmHg 80%
    04:00 +15°C° 0 mm 1 mps 692 mmHg 81%
    05:00 +16°C° 0 mm 1 mps 692 mmHg 79%
    06:00 +18°C° 0 mm 1 mps 693 mmHg 77%
    07:00 +20°C° 0 mm 1 mps 693 mmHg 74%
    08:00 +22°C° 0 mm 1 mps 694 mmHg 65%
    09:00 +25°C° 0 mm 1 mps 694 mmHg 56%
    10:00 +28°C° 0 mm 1 mps 695 mmHg 47%
    11:00 +28°C° 0.1 mm 1 mps 695 mmHg 45%
    12:00 +29°C° 0.1 mm 1 mps 694 mmHg 44%
    13:00 +29°C° 0.1 mm 1 mps 694 mmHg 43%
    14:00 +28°C° 0.2 mm 1 mps 694 mmHg 46%
    15:00 +28°C° 0.2 mm 1 mps 694 mmHg 49%
    16:00 +27°C° 0.2 mm 1 mps 693 mmHg 53%
    17:00 +25°C° 0.1 mm 1 mps 693 mmHg 59%
    18:00 +21°C° 0.1 mm 0 mps 693 mmHg 65%
    19:00 +19°C° 0.1 mm 0 mps 692 mmHg 72%
    20:00 +18°C° 0.2 mm 0 mps 692 mmHg 74%
    21:00 +18°C° 0.2 mm 0 mps 693 mmHg 76%
    22:00 +19°C° 0.2 mm 1 mps 693 mmHg 79%
    23:00 +19°C° 0.1 mm 1 mps 693 mmHg 80%

    Day after tomorrow, 22 August, Wednesday

    Time Temperature Precipitation Wind Pressure Humidity
    00:00 +18°C° 0.1 mm 1 mps 693 mmHg 82%
    01:00 +18°C° 0.1 mm 1 mps 693 mmHg 83%
    02:00 +16°C° 0.1 mm 1 mps 692 mmHg 84%
    03:00 +16°C° 0.1 mm 1 mps 692 mmHg 85%
    04:00 +16°C° 0.1 mm 1 mps 692 mmHg 85%
    05:00 +18°C° 0 mm 1 mps 692 mmHg 83%
    06:00 +19°C° 0 mm 1 mps 693 mmHg 81%
    07:00 +20°C° 0 mm 1 mps 693 mmHg 78%
    08:00 +22°C° 0 mm 1 mps 693 mmHg 70%
    09:00 +25°C° 0 mm 1 mps 694 mmHg 62%
    10:00 +27°C° 0 mm 1 mps 694 mmHg 53%
    11:00 +27°C° 0.4 mm 1 mps 694 mmHg 51%
    12:00 +28°C° 0.4 mm 1 mps 694 mmHg 50%
    13:00 +28°C° 0.4 mm 1 mps 693 mmHg 48%
    14:00 +28°C° 0.3 mm 1 mps 693 mmHg 50%
    15:00 +27°C° 0.3 mm 1 mps 693 mmHg 51%
    16:00 +27°C° 0.3 mm 1 mps 693 mmHg 52%
    17:00 +25°C° 0.1 mm 1 mps 692 mmHg 59%
    18:00 +21°C° 0.1 mm 0 mps 692 mmHg 66%
    19:00 +19°C° 0.1 mm 0 mps 691 mmHg 73%
    20:00 +18°C° 0 mm 0 mps 691 mmHg 75%
    21:00 +17°C° 0 mm 0 mps 692 mmHg 77%
    22:00 +19°C° 0 mm 1 mps 692 mmHg 79%
    23:00 +18°C° 0 mm 1 mps 691 mmHg 80%

    23 August, Thursday

    Time Temperature Precipitation Wind Pressure Humidity
    00:00 +18°C° 0 mm 1 mps 691 mmHg 82%
    01:00 +16°C° 0 mm 1 mps 691 mmHg 83%
    02:00 +16°C° 0 mm 1 mps 691 mmHg 84%
    03:00 +16°C° 0 mm 1 mps 690 mmHg 85%
    04:00 +15°C° 0 mm 1 mps 690 mmHg 86%
    05:00 +16°C° 0 mm 1 mps 690 mmHg 82%
    06:00 +19°C° 0 mm 1 mps 691 mmHg 79%
    07:00 +20°C° 0 mm 1 mps 691 mmHg 76%
    08:00 +22°C° 0 mm 1 mps 691 mmHg 67%
    09:00 +23°C° 0 mm 0 mps 692 mmHg 58%
    10:00 +26°C° 0 mm 0 mps 692 mmHg 49%
    11:00 +28°C° 0.2 mm 1 mps 692 mmHg 47%
    12:00 +29°C° 0.2 mm 1 mps 692 mmHg 46%
    13:00 +29°C° 0.2 mm 1 mps 691 mmHg 44%
    14:00 +28°C° 0.1 mm 1 mps 691 mmHg 45%
    15:00 +28°C° 0.1 mm 1 mps 691 mmHg 46%
    16:00 +27°C° 0.1 mm 1 mps 690 mmHg 47%
    17:00 +25°C° 0 mm 1 mps 690 mmHg 55%
    18:00 +23°C° 0 mm 1 mps 689 mmHg 63%
    19:00 +19°C° 0 mm 0 mps 689 mmHg 70%
    20:00 +18°C° 0 mm 0 mps 689 mmHg 72%
    21:00 +19°C° 0 mm 1 mps 689 mmHg 74%
    22:00 +18°C° 0 mm 1 mps 689 mmHg 76%
    23:00 +18°C° 0 mm 1 mps 689 mmHg 78%

    24 August, Friday

    Time Temperature Precipitation Wind Pressure Humidity
    00:00 +16°C° 0 mm 1 mps 688 mmHg 79%
    01:00 +16°C° 0 mm 1 mps 688 mmHg 80%
    02:00 +15°C° 0 mm 1 mps 688 mmHg 81%
    03:00 +15°C° 0 mm 1 mps 688 mmHg 82%
    04:00 +14°C° 0 mm 1 mps 687 mmHg 83%
    05:00 +16°C° 0 mm 1 mps 688 mmHg 79%
    06:00 +18°C° 0 mm 1 mps 688 mmHg 76%
    07:00 +19°C° 0 mm 1 mps 688 mmHg 72%
    08:00 +22°C° 0 mm 1 mps 688 mmHg 64%
    09:00 +24°C° 0 mm 1 mps 689 mmHg 55%
    10:00 +27°C° 0 mm 1 mps 689 mmHg 47%
    11:00 +27°C° 0.2 mm 1 mps 689 mmHg 47%
    12:00 +28°C° 0.2 mm 2 mps 688 mmHg 47%
    13:00 +28°C° 0.2 mm 2 mps 688 mmHg 47%
    14:00 +27°C° 0.4 mm 2 mps 688 mmHg 51%
    15:00 +27°C° 0.4 mm 2 mps 687 mmHg 55%
    16:00 +26°C° 0.4 mm 2 mps 687 mmHg 58%
    17:00 +24°C° 0.5 mm 2 mps 687 mmHg 67%
    18:00 +22°C° 0.5 mm 1 mps 686 mmHg 75%
    19:00 +20°C° 0.5 mm 1 mps 686 mmHg 83%
    20:00 +19°C° 0.4 mm 1 mps 686 mmHg 86%
    21:00 +18°C° 0.4 mm 1 mps 686 mmHg 88%
    22:00 +16°C° 0.4 mm 1 mps 687 mmHg 91%
    23:00 +16°C° 0.6 mm 1 mps 686 mmHg 91%

    25 August, Saturday

    Time Temperature Precipitation Wind Pressure Humidity
    00:00 +16°C° 0.6 mm 1 mps 686 mmHg 92%
    01:00 +15°C° 0.6 mm 1 mps 686 mmHg 93%
    02:00 +15°C° 1.8 mm 1 mps 686 mmHg 94%
    03:00 +15°C° 1.8 mm 1 mps 686 mmHg 95%
    04:00 +15°C° 1.8 mm 1 mps 686 mmHg 96%
    05:00 +15°C° 2.6 mm 1 mps 686 mmHg 96%
    06:00 +14°C° 2.6 mm 2 mps 686 mmHg 96%
    07:00 +14°C° 2.6 mm 2 mps 686 mmHg 97%
    08:00 +14°C° 2.8 mm 2 mps 686 mmHg 95%
    09:00 +14°C° 2.8 mm 2 mps 686 mmHg 94%
    10:00 +14°C° 2.8 mm 2 mps 686 mmHg 93%
    11:00 +14°C° 1.1 mm 2 mps 686 mmHg 93%
    12:00 +14°C° 1.1 mm 2 mps 686 mmHg 93%
    13:00 +14°C° 1.1 mm 2 mps 686 mmHg 93%
    14:00 +14°C° 0.5 mm 2 mps 686 mmHg 92%
    15:00 +14°C° 0.5 mm 2 mps 686 mmHg 92%
    16:00 +14°C° 0.5 mm 2 mps 685 mmHg 91%
    17:00 +13°C° 1 mm 2 mps 685 mmHg 92%
    18:00 +13°C° 1 mm 2 mps 685 mmHg 93%
    19:00 +12°C° 1 mm 2 mps 685 mmHg 95%
    20:00 +12°C° 2.2 mm 2 mps 685 mmHg 95%
    21:00 +10°C° 2.2 mm 2 mps 686 mmHg 96%
    22:00 +10°C° 2.2 mm 2 mps 686 mmHg 96%
    23:00 +9°C° 3.5 mm 2 mps 686 mmHg 96%
    Show more